Regional Weather Roundup
Issued by NWS Cleveland, OH

Home | Current Version | Previous Version | Text Only | Print | Product List | Glossary Off
Versions: 1 2 3 4 5 6 7 8 9 10 11 12 13 14 15 16 17 18 19 20 21 22 23 24 25 26 27 28 29 30 31 32 33 34 35 36 37 38 39 40 41 42 43 44 45 46 47 48 49 50

000
ASUS41 KCLE 221900
RWRCLE
OHIO REGIONAL WEATHER ROUNDUP
NATIONAL WEATHER SERVICE WILMINGTON, OH
200 PM EST MON JAN 22 2018

NOTE: "FAIR" INDICATES FEW OR NO CLOUDS BELOW 12,000 FEET WITH NO
SIGNIFICANT WEATHER AND/OR OBSTRUCTIONS TO VISIBILITY.

OHZ001>008-015>018-024>027-034-035-043-044-222000-
   NORTHWEST OHIO

CITY           SKY/WX    TMP DP  RH WIND       PRES   REMARKS
DEFIANCE       LGT RAIN  54  46  74 S17G28    29.67F
FINDLAY        CLOUDY    56  44  64 S29G36    29.72F
TOLEDO EXPRESS PTSUNNY   57  48  72 S13G26    29.67F
TOLEDO EXEC    CLOUDY    56  46  69 S15       29.71F
LIMA           LGT RAIN  54  48  80 S20G28    29.71F
$$

OHZ009>014-019>023-028>033-038-089-222000-
   NORTHEAST OHIO

CITY           SKY/WX    TMP DP  RH WIND       PRES   REMARKS
CLE-HOPKINS    CLOUDY    62  46  55 S16       29.82F
CLE-LAKEFRONT  FAIR      63  44  50 S17G26    29.78F
CUY CO. ARPT   PTSUNNY   63  34  34 S14G21    29.81F
LORAIN-ELYRIA  NOT AVBL
ASHTABULA      CLOUDY    56  48  74 S10       29.84F
AKRON-CANTON   PTSUNNY   59  45  59 S14       29.83F
WOOSTER        NOT AVBL
MANSFIELD      FAIR      58  45  62 S22G32    29.80F
YOUNGSTOWN     CLOUDY    56  46  69 S12       29.85F
$$

OHZ042-051>053-060>062-070>072-077>081-222000-
  SOUTHWEST OHIO

CITY           SKY/WX    TMP DP  RH WIND       PRES   REMARKS
CINC-COVINGTON LGT RAIN  53  50  89 S16       29.75F
CINC-LUNKEN    RAIN      55  49  80 S10       29.79F
HAMILTON       LGT RAIN  54  49  83 S9        29.77F
DAYTON         NOT AVBL
WRIGHT-PAT AFB LGT RAIN  54  46  76 S12       29.76F
DAYTON GENERAL LGT RAIN  53  47  79 S14       29.76F
WILMINGTON     LGT RAIN  55  48  77 S14G21    29.79F
$$

OHZ036-037-039>041-045>050-054>059-063>069-073>076-082>088-222000-
  CENTRAL AND SOUTHEAST OHIO

CITY           SKY/WX    TMP DP  RH WIND       PRES   REMARKS
COLUMBUS       CLOUDY    58  47  66 S9        29.82F
OSU AIRPORT    CLOUDY    57  47  69 S10       29.81F
BOLTON FIELD   CLOUDY    55  46  71 S9        29.83F
RICKENBACK AFB NOT AVBL
NEWARK         FAIR      59  45  59 SW9       29.83F
MARION         CLOUDY    56  45  66 S17       29.79F
LANCASTER      CLOUDY    60  45  57 S15       29.84F
ZANESVILLE     PTSUNNY   61  45  55 S10       29.85F
NEW PHILLY     FAIR      61  46  57 S8        29.85F
$$




USA.gov is the U.S. government's official web portal to all federal, state and local government web resources and services.